| time (UTC) | temp C | wind direction | speed KPH | gust KPH | rain 1hr cm | rain 24hr cm | rain mn cm | humidity % | barometer mb |
| 20260507051605 | 14 | 81 | 1.6 | 6.4 | 0.00 | 0.00 | 0.00 | 90 | 1018.8 |
| 20260507050100 | 14 | 84 | 1.6 | 6.4 | 0.00 | 0.00 | 0.00 | 91 | 1018.8 |
| 20260507044602 | 14 | 109 | 3.2 | 6.4 | 0.00 | 0.00 | 0.00 | 91 | 1018.7 |
| 20260507043103 | 14 | 0 | 0.0 | 3.2 | 0.00 | 0.00 | 0.00 | 91 | 1018.7 |
| 20260507041601 | 14 | 0 | 0.0 | 0.0 | 0.00 | 0.00 | 0.00 | 91 | 1018.6 |
| 20260507040059 | 14 | 0 | 0.0 | 0.0 | 0.00 | 0.00 | 0.00 | 90 | 1018.4 |
| 20260507034558 | 15 | 0 | 0.0 | 0.0 | 0.00 | 0.00 | 0.00 | 90 | 1018.2 |
| 20260507033101 | 15 | 0 | 0.0 | 4.8 | 0.00 | 0.00 | 0.00 | 89 | 1018.1 |
| 20260507031557 | 15 | 0 | 0.0 | 3.2 | 0.00 | 0.00 | 0.00 | 88 | 1018.0 |
| 20260507030101 | 15 | 0 | 0.0 | 1.6 | 0.00 | 0.00 | 0.00 | 87 | 1017.8 |
| 20260507024618 | 16 | 0 | 0.0 | 0.0 | 0.00 | 0.00 | 0.00 | 85 | 1017.6 |
| 20260507023101 | 16 | 0 | 0.0 | 3.2 | 0.00 | 0.00 | 0.00 | 83 | 1017.6 |
| 20260507021601 | 16 | 0 | 0.0 | 8.0 | 0.00 | 0.00 | 0.00 | 81 | 1017.5 |
| 20260507020111 | 17 | 0 | 0.0 | 4.8 | 0.00 | 0.00 | 0.00 | 78 | 1017.4 |
| 20260507014608 | 17 | 0 | 0.0 | 4.8 | 0.00 | 0.00 | 0.00 | 78 | 1017.5 |
| 20260507013058 | 17 | 0 | 0.0 | 8.0 | 0.00 | 0.00 | 0.00 | 79 | 1017.5 |
| 20260507011604 | 18 | 289 | 1.6 | 11.3 | 0.00 | 0.00 | 0.00 | 76 | 1017.3 |
| 20260507010059 | 18 | 0 | 3.2 | 11.3 | 0.00 | 0.00 | 0.00 | 75 | 1017.3 |
| 20260507004557 | 18 | 288 | 4.8 | 12.9 | 0.00 | 0.00 | 0.00 | 74 | 1017.5 |
| 20260507003101 | 18 | 263 | 3.2 | 11.3 | 0.00 | 0.00 | 0.00 | 73 | 1017.7 |
| 20260507001601 | 19 | 284 | 3.2 | 11.3 | 0.00 | 0.00 | 0.00 | 70 | 1017.7 |
| 20260507000058 | 19 | 287 | 3.2 | 19.3 | 0.00 | 0.00 | 0.00 | 68 | 1017.7 |
| 20260506234602 | 19 | 299 | 1.6 | 16.1 | 0.00 | 0.00 | 0.00 | 66 | 1017.7 |
| 20260506233101 | 20 | 219 | 3.2 | 20.9 | 0.00 | 0.00 | 0.00 | 66 | 1017.7 |
| 20260506231600 | 20 | 226 | 3.2 | 17.7 | 0.00 | 0.00 | 0.00 | 66 | 1017.8 |
| 20260506224558 | 20 | 263 | 8.0 | 17.7 | 0.00 | 0.00 | 0.00 | 67 | 1018.3 |
| 20260506223059 | 20 | 215 | 3.2 | 9.7 | 0.00 | 0.00 | 0.00 | 69 | 1018.5 |
| 20260506221600 | 20 | 271 | 1.6 | 9.7 | 0.00 | 0.00 | 0.00 | 70 | 1018.8 |
| 20260506220059 | 20 | 237 | 4.8 | 19.3 | 0.00 | 0.00 | 0.00 | 71 | 1019.1 |
| 20260506214558 | 20 | 272 | 3.2 | 14.5 | 0.00 | 0.00 | 0.00 | 69 | 1019.1 |
| 20260506213131 | 20 | 288 | 1.6 | 11.3 | 0.00 | 0.00 | 0.00 | 69 | 1019.3 |
| 20260506211620 | 20 | 245 | 3.2 | 12.9 | 0.00 | 0.00 | 0.00 | 69 | 1019.3 |
| 20260506210103 | 20 | 292 | 1.6 | 6.4 | 0.00 | 0.00 | 0.00 | 69 | 1019.5 |
| 20260506204600 | 20 | 285 | 1.6 | 12.9 | 0.00 | 0.00 | 0.00 | 68 | 1019.5 |
| 20260506203103 | 20 | 245 | 1.6 | 11.3 | 0.00 | 0.00 | 0.00 | 69 | 1019.6 |
| 20260506201609 | 20 | 237 | 1.6 | 17.7 | 0.00 | 0.00 | 0.00 | 71 | 1019.7 |
| 20260506194619 | 19 | 234 | 1.6 | 12.9 | 0.00 | 0.00 | 0.00 | 71 | 1019.9 |
| 20260506193058 | 19 | 211 | 3.2 | 14.5 | 0.00 | 0.00 | 0.00 | 72 | 1019.9 |
| 20260506191600 | 19 | 173 | 3.2 | 17.7 | 0.00 | 0.00 | 0.00 | 72 | 1019.9 |
| 20260506190057 | 20 | 196 | 1.6 | 8.0 | 0.00 | 0.00 | 0.00 | 70 | 1019.9 |
| 20260506184609 | 20 | 296 | 1.6 | 6.4 | 0.00 | 0.00 | 0.00 | 71 | 1020.1 |
| 20260506183103 | 20 | 187 | 1.6 | 9.7 | 0.00 | 0.00 | 0.00 | 70 | 1020.1 |
| 20260506181605 | 20 | 163 | 0.0 | 11.3 | 0.00 | 0.00 | 0.00 | 71 | 1020.3 |
| 20260506174610 | 20 | 283 | 1.6 | 8.0 | 0.00 | 0.00 | 0.00 | 70 | 1020.2 |
| 20260506173110 | 19 | 0 | 0.0 | 4.8 | 0.00 | 0.00 | 0.00 | 72 | 1020.2 |
| 20260506171610 | 18 | 233 | 1.6 | 8.0 | 0.00 | 0.00 | 0.00 | 74 | 1020.1 |
| 20260506170114 | 18 | 195 | 0.0 | 4.8 | 0.00 | 0.00 | 0.00 | 72 | 1020.0 |
| 20260506164610 | 18 | 309 | 1.6 | 6.4 | 0.00 | 0.00 | 0.00 | 72 | 1020.0 |
| 20260506163113 | 18 | 188 | 0.0 | 12.9 | 0.00 | 0.00 | 0.00 | 73 | 1020.0 |
| 20260506161600 | 17 | 155 | 1.6 | 6.4 | 0.00 | 0.00 | 0.00 | 75 | 1020.0 |
| 20260506160119 | 17 | 151 | 1.6 | 8.0 | 0.00 | 0.00 | 0.00 | 75 | 1020.0 |
| 20260506154604 | 16 | 0 | 1.6 | 8.0 | 0.00 | 0.00 | 0.00 | 74 | 1019.8 |
| 20260506153057 | 16 | 73 | 0.0 | 4.8 | 0.00 | 0.00 | 0.00 | 75 | 1020.0 |
| 20260506151558 | 16 | 0 | 3.2 | 11.3 | 0.00 | 0.00 | 0.00 | 75 | 1019.8 |
| 20260506150057 | 15 | 89 | 1.6 | 9.7 | 0.00 | 0.00 | 0.00 | 77 | 1019.8 |
| 20260506144607 | 15 | 46 | 3.2 | 9.7 | 0.00 | 0.00 | 0.00 | 78 | 1019.7 |
| 20260506143109 | 13 | 85 | 3.2 | 6.4 | 0.00 | 0.00 | 0.00 | 81 | 1019.6 |
| 20260506141559 | 13 | 76 | 3.2 | 9.7 | 0.00 | 0.00 | 0.00 | 83 | 1019.5 |
| 20260506140106 | 12 | 74 | 3.2 | 8.0 | 0.00 | 0.00 | 0.00 | 86 | 1019.4 |
| 20260506134557 | 11 | 0 | 0.0 | 0.0 | 0.00 | 0.00 | 0.00 | 90 | 1019.5 |
| 20260506133058 | 11 | 0 | 0.0 | 0.0 | 0.00 | 0.00 | 0.00 | 90 | 1019.5 |
| 20260506131558 | 11 | 0 | 0.0 | 0.0 | 0.00 | 0.00 | 0.00 | 90 | 1019.3 |
| 20260506124556 | 11 | 0 | 0.0 | 0.0 | 0.00 | 0.00 | 0.00 | 88 | 1019.2 |
| 20260506123056 | 11 | 0 | 0.0 | 0.0 | 0.00 | 0.00 | 0.00 | 87 | 1019.1 |
| 20260506121559 | 12 | 0 | 0.0 | 0.0 | 0.00 | 0.00 | 0.00 | 86 | 1018.8 |
| 20260506120111 | 12 | 0 | 0.0 | 0.0 | 0.00 | 0.00 | 0.00 | 86 | 1018.6 |
| 20260506114557 | 12 | 0 | 0.0 | 3.2 | 0.00 | 0.00 | 0.00 | 86 | 1018.4 |
| 20260506113059 | 12 | 0 | 0.0 | 4.8 | 0.00 | 0.00 | 0.00 | 86 | 1018.6 |
| 20260506111557 | 12 | 77 | 1.6 | 8.0 | 0.00 | 0.00 | 0.00 | 86 | 1018.4 |
| 20260506110100 | 12 | 0 | 1.6 | 3.2 | 0.00 | 0.00 | 0.00 | 87 | 1018.6 |
| 20260506104600 | 12 | 70 | 1.6 | 4.8 | 0.00 | 0.00 | 0.00 | 87 | 1018.5 |
| 20260506103119 | 12 | 82 | 0.0 | 6.4 | 0.00 | 0.00 | 0.00 | 86 | 1018.4 |
| 20260506101556 | 12 | 71 | 1.6 | 8.0 | 0.00 | 0.00 | 0.00 | 87 | 1018.4 |
| 20260506100056 | 12 | 90 | 3.2 | 6.4 | 0.00 | 0.00 | 0.00 | 87 | 1018.4 |
| 20260506094605 | 12 | 92 | 1.6 | 6.4 | 0.00 | 0.00 | 0.00 | 88 | 1018.6 |
| 20260506093059 | 12 | 0 | 0.0 | 3.2 | 0.00 | 0.00 | 0.00 | 87 | 1018.6 |
| 20260506091607 | 12 | 0 | 0.0 | 4.8 | 0.00 | 0.00 | 0.00 | 87 | 1019.0 |
| 20260506090100 | 12 | 0 | 0.0 | 6.4 | 0.00 | 0.00 | 0.00 | 87 | 1018.7 |
| 20260506084615 | 13 | 94 | 3.2 | 11.3 | 0.00 | 0.00 | 0.00 | 87 | 1018.9 |
| 20260506083057 | 13 | 71 | 3.2 | 9.7 | 0.00 | 0.00 | 0.00 | 87 | 1018.9 |
| 20260506081607 | 13 | 101 | 3.2 | 12.9 | 0.00 | 0.00 | 0.00 | 87 | 1019.0 |
| 20260506073101 | 13 | 69 | 3.2 | 12.9 | 0.00 | 0.00 | 0.00 | 88 | 1018.9 |
| 20260506071558 | 13 | 77 | 6.4 | 12.9 | 0.00 | 0.00 | 0.00 | 88 | 1018.8 |
| 20260506061602 | 13 | 86 | 3.2 | 9.7 | 0.00 | 0.00 | 0.00 | 88 | 1018.2 |